Ostrava, Czech Republic

9:54 AM CEST on July 26, 2017 (GMT +0200)
Mosnov

Weather History for LKMT - January, 2013

Change the Weather History Date:

Tuesday, January 8, 2013

  Actual Average Record
Temperature  
Mean Temperature 22 °F -  
Max Temperature 28 °F 34 °F - ()
Min Temperature 15 °F 23 °F - ()
Degree Days  
Heating Degree Days 44    
Moisture  
Dew Point 21 °F    
Average Humidity 88    
Maximum Humidity 93    
Minimum Humidity 80    
Precipitation  
Precipitation 0.02 in 0.04 in - ()
Sea Level Pressure  
Sea Level Pressure 30.24 in    
Wind  
Wind Speed 8 mph ()    
Max Wind Speed 21 mph    
Max Gust Speed -    
Visibility 3.0 miles    
Events Rain , Snow    
T = Trace of Precipitation, MM = Missing Value Source: Averaged Metar Reports

Daily Weather History Graph

Daily Weather History Graph

Search for Another Location

Airport or City:

Trip Planner

Search our weather history database for the weather conditions in past years. The results will help you decide how hot, cold, wet, or windy it might be!

Date:

Astronomy

Jan. 08, 2013 Rise Set
Actual Time 7:42 AM CET 4:05 PM CET
Civil Twilight 7:05 AM CET 4:43 PM CET
Nautical Twilight 6:25 AM CET 5:23 PM CET
Astronomical Twilight 5:46 AM CET 6:02 PM CET
Moon 3:52 AM CET (1/8) 12:53 PM CET (1/8)
Length of Visible Light 9h 37m
Length of Day
8h 23m
Waning Crescent, 16% of the Moon is Illuminated
Jan 8
Waning Crescent
Jan 11
New
Jan 19
First Quarter
Jan 27
Full
Feb 3
Last Quarter

Hourly Weather History & Observations

Time (CET) Temp. Windchill Dew Point Humidity Pressure Visibility Wind Dir Wind Speed Gust Speed Precip Events Conditions
12:00 AM 17.6 °F 12.3 °F 15.8 °F 93% 30.36 in 2.5 mi SW 3.5 mph - N/A   Mist
12:30 AM 17.6 °F 9.3 °F 14.0 °F 86% 30.36 in 2.5 mi SW 5.8 mph - N/A   Mist
1:00 AM 17 °F - 14 °F 84% 30.45 in 2 mi 2.2 mph - -   Mist
1:00 AM 17.6 °F - 14.0 °F 86% 30.36 in 2.5 mi Variable 1.2 mph - N/A   Mist
1:30 AM 17.6 °F 9.3 °F 15.8 °F 93% 30.36 in 2.5 mi SSW 5.8 mph - N/A   Mist
2:00 AM 15.8 °F 8.6 °F 14.0 °F 93% 30.36 in 2.5 mi SSW 4.6 mph - N/A   Mist
2:30 AM 17.6 °F 10.7 °F 15.8 °F 93% 30.36 in 2.5 mi SSW 4.6 mph - N/A   Unknown
3:00 AM 17.6 °F 12.3 °F 15.8 °F 93% 30.33 in 2.5 mi South 3.5 mph - N/A   Mist
3:30 AM 19.4 °F - 15.8 °F 86% 30.33 in 2.8 mi SSW 2.3 mph - N/A   Mist
4:00 AM 19.4 °F 12.8 °F 17.6 °F 93% 30.33 in 2.8 mi SW 4.6 mph - N/A   Mist
4:30 AM 19.4 °F 11.5 °F 17.6 °F 93% 30.33 in 2.8 mi SW 5.8 mph - N/A   Mist
5:00 AM 17.6 °F 9.3 °F 15.8 °F 93% 30.33 in 3.7 mi SSW 5.8 mph - N/A   Unknown
5:30 AM 17.6 °F 12.3 °F 15.8 °F 93% 30.30 in 3.7 mi South 3.5 mph - N/A   Unknown
6:00 AM 17.6 °F 12.3 °F 14.0 °F 86% 30.30 in 3.7 mi South 3.5 mph - N/A   Unknown
6:30 AM 17.6 °F 10.7 °F 14.0 °F 86% 30.30 in 4.3 mi South 4.6 mph - N/A   Unknown
7:00 AM 15 °F - 12 °F 82% 30.38 in 4 mi SSW 4.5 mph - -   Mist
7:30 AM 17.6 °F 10.7 °F 14.0 °F 86% 30.30 in 4.3 mi SSW 4.6 mph - N/A   Unknown
8:00 AM 19.4 °F 10.4 °F 15.8 °F 86% 30.27 in 4.3 mi SSW 6.9 mph - N/A   Unknown
8:30 AM 21.2 °F 11.7 °F 15.8 °F 80% 30.30 in 4.3 mi SW 8.1 mph - N/A   Unknown
9:00 AM 23.0 °F 12.4 °F 17.6 °F 80% 30.27 in 5.6 mi SW 10.4 mph - N/A   Unknown
9:30 AM 23.0 °F 11.1 °F 19.4 °F 86% 30.27 in 5.6 mi SW 12.7 mph - N/A   Unknown
10:00 AM 24.8 °F 14.6 °F 19.4 °F 80% 30.27 in 5.6 mi SW 10.4 mph - N/A   Unknown
10:30 AM 24.8 °F 12.9 °F 21.2 °F 86% 30.27 in 6.2 mi SW 13.8 mph - N/A   Partly Cloudy
11:00 AM 26.6 °F 16.8 °F 21.2 °F 80% 30.27 in 6.2 mi SSW 10.4 mph - N/A   Mostly Cloudy
11:30 AM 26.6 °F 16.2 °F 23.0 °F 86% 30.24 in 6.2 mi SW 11.5 mph - N/A   Mostly Cloudy
12:00 PM 26.6 °F 14.3 °F 21.2 °F 80% 30.24 in 4.3 mi SW 16.1 mph - N/A Snow Light Snow
12:09 PM 26.6 °F 12.7 °F 23.0 °F 86% 30.21 in 2.5 mi SW 20.7 mph - N/A Snow Light Snow
12:21 PM 26.6 °F 13.1 °F 23.0 °F 86% 30.21 in 1.2 mi SW 19.6 mph - N/A Snow Snow
12:30 PM 26.6 °F 13.1 °F 23.0 °F 86% 30.21 in 1.4 mi SW 19.6 mph - N/A Snow Snow
1:00 PM 26 °F - 23 °F 85% 30.27 in 1 mi SW 15.7 mph - - Snow Snow
1:00 PM 26.6 °F 14.3 °F 23.0 °F 86% 30.21 in 1.0 mi SW 16.1 mph - N/A Snow Snow
1:30 PM 26.6 °F 15.7 °F 24.8 °F 93% 30.21 in 1.2 mi SW 12.7 mph - N/A Snow Snow
2:00 PM 26.6 °F 16.8 °F 24.8 °F 93% 30.18 in 1.9 mi SW 10.4 mph - N/A Snow Light Snow
2:13 PM 26.6 °F 16.2 °F 24.8 °F 93% 30.18 in 1.4 mi SW 11.5 mph - N/A Snow Snow
2:30 PM 26.6 °F 16.2 °F 24.8 °F 93% 30.18 in 1.2 mi SW 11.5 mph - N/A Snow Snow
3:00 PM 26.6 °F 15.2 °F 24.8 °F 93% 30.18 in 1.1 mi SW 13.8 mph - N/A Snow Snow
3:30 PM 26.6 °F 14.7 °F 24.8 °F 93% 30.18 in 1.0 mi SW 15.0 mph - N/A Snow Snow
4:00 PM 26.6 °F 14.7 °F 24.8 °F 93% 30.18 in 1.2 mi SW 15.0 mph - N/A Snow Snow
4:30 PM 26.6 °F 14.3 °F 24.8 °F 93% 30.18 in 1.9 mi SW 16.1 mph - N/A Snow Light Snow
5:00 PM 28.4 °F 17.0 °F 24.8 °F 86% 30.18 in 2.2 mi SW 15.0 mph - N/A Snow Light Snow
5:30 PM 28.4 °F 16.2 °F 24.8 °F 86% 30.18 in 2.2 mi SW 17.3 mph - N/A Snow Light Snow
6:00 PM 28.4 °F 16.6 °F 24.8 °F 86% 30.15 in 2.5 mi SW 16.1 mph - N/A Snow Light Snow
6:30 PM 28.4 °F 16.6 °F 24.8 °F 86% 30.15 in 4.3 mi SW 16.1 mph - N/A   Overcast
7:00 PM 28 °F - 25 °F 83% 30.23 in 5 mi WSW 15.7 mph - - Snow Light Snow
7:00 PM 28.4 °F 16.6 °F 24.8 °F 86% 30.15 in 5.0 mi WSW 16.1 mph - N/A   Overcast
7:30 PM 28.4 °F 16.2 °F 24.8 °F 86% 30.15 in 5.0 mi SW 17.3 mph - N/A   Overcast
8:00 PM 28.4 °F 16.2 °F 24.8 °F 86% 30.15 in 4.3 mi SW 17.3 mph - N/A   Overcast
8:30 PM 28.4 °F 15.4 °F 24.8 °F 86% 30.15 in 3.7 mi SW 19.6 mph - N/A   Light Freezing Rain
9:00 PM 28.4 °F 15.4 °F 24.8 °F 86% 30.15 in 2.5 mi SW 19.6 mph - N/A   Overcast
9:11 PM 28.4 °F 16.2 °F 26.6 °F 93% 30.15 in 2.2 mi SW 17.3 mph - N/A   Light Freezing Rain
9:12 PM 28.4 °F 16.2 °F 26.6 °F 93% 30.15 in 1.9 mi SW 17.3 mph - N/A   Light Freezing Rain
9:30 PM 28.4 °F 16.6 °F 26.6 °F 93% 30.15 in 1.9 mi SW 16.1 mph - N/A   Light Freezing Rain
10:00 PM 28.4 °F 16.6 °F 26.6 °F 93% 30.15 in 1.9 mi SW 16.1 mph - N/A   Light Freezing Rain
10:30 PM 28.4 °F 16.2 °F 26.6 °F 93% 30.12 in 1.9 mi SW 17.3 mph - N/A   Light Freezing Rain
11:00 PM 28.4 °F 16.2 °F 26.6 °F 93% 30.12 in 2.5 mi SW 17.3 mph - N/A Rain , Snow Light Freezing Rain
11:30 PM 28.4 °F 16.2 °F 26.6 °F 93% 30.12 in 2.5 mi SW 17.3 mph - N/A Rain , Snow Light Freezing Rain